Dewpoint
-5 -3 -1 1 1 1 1 1 2 1 0 0 0 3 1 0 0 -5 -6 -5 -3 -2 -1 -1 -2 2 1 -1 1 3 -0 -1 1 -1 -6 -7 -5 -3 4 8 7 7 6 6
-7 -6 -4 0 1 1 0 1 -1 -0 0 2 2 0 -0 -0 -4 -4 -4 -4 -4 -3 -1 0 0 1 -0 -2 -4 -3 -2 0 1 2 -1 -6 -5 -4 -4 -2 -2 -1 -0 -0
-5 -4 -3 -2 0 0 0 -0 1 -1 -1 -0 1 0 1 1 -5 -5 -5 -4 -2 -3 -1 -3 1 2 -1 -3 -4 -5 -4 -3 -1 2 1 -4 -3 -6 -7 -5 1 -2 -4 -1
-6 -4 -3 -2 -0 0 -0 -0 1 -2 0 -0 1 0 -2 -0 -1 -5 -4 -2 -1 -2 -1 -2 0 1 -0 -3 -5 -4 -4 -1 -4 -5 -9 -9 -7 -8 -9 -8 -8 -3 -7 -11
-6 -4 -3 -1 -0 -0 -1 0 2 0 -3 -2 0 0 1 -2 -3 -4 -4 -1 -2 -2 -0 -2 -1 2 -2 -2 -5 -3 -3 -0 -2 -4 -8 -10 -10 -13 -13 -11 -11 -13 -14 -11
-6 -5 -2 -2 -1 -0 -1 -0 0 1 -1 2 0 0 -0 -1 -4 -4 -6 -4 -2 -1 -1 -2 -4 -4 -4 -5 -3 -1 -4 -2 -4 -5 -8 -11 -10 -9 -13 -11 -13 -9 -8 -2
-3 -3 -3 -1 -1 -1 -1 -0 1 2 0 -2 -0 -3 -3 -3 -2 1 -3 -1 -1 -1 -4 -7 -7 -6 -6 -6 -5 -7 -5 -5 -6 -7 -8 -9 -2 -4 -4 -3 -1 -2 -3 -4
-3 -2 -2 -0 -0 -1 -1 -0 0 1 2 -1 -3 -4 -2 -4 -0 0 -4 -3 -1 -7 -8 -5 -4 -6 -7 -7 -9 -9 -10 -7 -6 -5 -6 -3 -4 -3 -0 -0 1 -3 -3 -4
-3 -2 -1 -0 -1 -2 -1 -1 -0 0 1 1 -4 -3 -2 3 2 -1 -4 -5 -6 -7 -3 -3 -3 -3 -6 -4 -5 -12 -11 -9 -2 -3 -2 -3 1 -5 -5 -3 1 -4 -4 -4
-4 -2 -1 -1 -2 -3 -2 -1 -0 0 0 -0 0 -0 1 -1 -1 -3 -4 -4 -4 -6 -1 0 -2 -2 -9 -3 -3 -5 -4 -3 -2 -2 -3 1 -2 -5 -4 1 -0 -4 -5 -4
-2 -0 -1 -1 -3 -2 -1 -1 -1 0 -0 -1 0 -0 0 -2 -3 -2 -4 -4 -4 -4 -2 -3 -2 0 -5 -0 2 -4 -4 -3 -2 -3 -2 1 -4 -4 -1 -2 -4 -4 -5 -5
-0 -1 -1 -2 -3 -2 -2 -1 -1 -1 -0 -1 -2 -3 -3 -2 -2 -2 -6 -5 -6 -5 -5 -7 -5 -2 -1 -1 0 -1 2 2 2 1 1 -4 -4 -3 -3 -2 -4 -4 -5 -5
-2 -3 -2 -3 -3 -2 -2 -1 -1 -1 -2 -2 -2 -3 -5 -7 -6 -5 -6 -7 -5 -4 -2 1 -2 -1 -3 -0 1 -1 -2 -2 -0 -1 -3 -4 -4 -4 -4 -4 -5 -5 -5 -6
-5 -5 -6 -6 -2 -1 -2 -1 -1 -0 0 -1 -4 -4 -5 -6 -10 -4 -2 -5 -5 -5 -3 -1 -0 -1 -2 1 -1 -1 -4 -4 -2 -1 -3 -4 -5 -5 -5 -5 -5 -5 -6 -6
-3 -2 -3 -3 -2 -2 -2 -1 -0 -0 -0 -3 -4 -5 -5 -5 -6 -6 -5 -5 -5 -6 -6 -2 -1 -3 -2 -2 -2 -2 -3 1 -1 1 -4 -2 -4 -5 -5 -5 -5 -6 -6 -6
-4 -3 -3 -3 -3 -4 -1 -1 -1 -1 -2 -6 -3 -4 -4 -4 -4 -5 -5 -5 -7 -9 -8 -7 -5 -2 -3 -0 0 -3 -4 -2 -2 -2 -3 -3 -4 -5 -5 -5 -6 -6 -7 -7
-3 -4 -5 -7 -7 -1 -3 -2 -4 -4 -3 -5 -3 -5 -4 -4 -5 -5 -5 -5 -5 -7 -9 -9 -8 -6 -4 -1 -0 -4 -3 -2 -2 -3 -4 -4 -5 -5 -5 -6 -7 -7 -7 -8
-5 -5 -6 -5 -2 -2 -4 -4 -6 -4 -3 -3 -3 -3 -5 -3 -6 -4 -4 -6 -6 -5 -6 -7 -8 -7 -7 -1 -2 -3 -3 -3 -4 -4 -4 -5 -5 -6 -7 -7 -8 -8 -8 -8
-5 -5 -5 -5 -3 -4 -6 -7 -8 -7 -2 -4 -4 -3 -2 -3 -3 -4 -5 -5 -1 -6 -5 -7 -8 -2 -3 -2 -4 -3 -3 -4 -4 -4 -5 -6 -6 -7 -7 -8 -8 -8 -8 -9
-6 -5 -4 -3 -4 -7 -10 -10 -4 -5 -6 -4 -3 -3 -2 -4 -3 -4 -4 -5 -4 -3 -5 -5 -4 -2 -4 -4 -4 -4 -4 -4 -4 -5 -5 -6 -7 -8 -8 -8 -8 -8 -8 -9
-5 -3 -3 -5 -10 -5 -6 -5 -5 -6 -5 -6 -4 -5 -3 -4 -1 -3 -5 -4 -5 -5 -2 -5 -3 -4 -3 -4 -4 -4 -4 -4 -4 -5 -6 -6 -6 -7 -7 -8 -8 -8 -9 -9
-5 -4 -4 -5 -4 -5 -4 -4 -6 -5 -6 -5 -3 -5 -5 -5 -5 -4 -6 -6 -5 -3 -4 -4 -4 -2 -3 -2 -2 -2 -3 -4 -4 -4 -5 -5 -6 -7 -7 -8 -8 -8 -9 -9
-5 -5 -5 -6 -6 -2 -3 -3 -5 -2 -3 -2 -3 -0 -3 -5 -3 -3 -4 -1 -1 -4 -2 -3 -1 -3 -2 -2 -2 -3 -3 -4 -3 -4 -4 -5 -6 -7 -8 -8 -8 -9 -9 -10
-6 -5 -3 -2 -2 -4 -1 0 -1 -2 -3 -3 -2 -1 -1 -2 -1 -2 -2 -1 -3 -2 -2 0 -2 -3 -2 -3 -3 -4 -4 -4 -3 -4 -5 -6 -7 -7 -8 -8 -9 -10 -11 -12
-4 -5 -3 -3 -3 -2 -2 -2 -2 -1 -2 -3 -2 -2 -3 -3 -3 -3 -3 -3 -3 -3 1 -1 -3 -3 -3 -3 -4 -4 -4 -5 -5 -5 -6 -6 -7 -7 -8 -10 -11 -11 -13 -21
-4 -3 -3 -3 -2 -2 -1 -2 -1 -1 -2 -3 -4 -1 -1 -2 -3 -3 -3 -2 -1 0 -2 -3 -3 -4 -4 -5 -5 -5 -5 -6 -6 -6 -6 -6 -7 -8 -10 -10 -11 -13 -21 -22
-4 -2 -2 -1 -2 -2 -1 -2 -2 -2 -2 1 -5 -3 -4 -4 -4 -3 -3 -0 -1 -3 -4 -4 -4 -5 -5 -6 -6 -6 -7 -7 -7 -7 -7 -7 -8 -10 -10 -11 -16 -22 -21 -23
Wind_Speed
26 30 29 33 32 25 22 9 3 15 35 4 3 7 7 6 15 14 8 5 10 13 11 12 11 8 6 5 14 16 20 4 6 12 11 4 6 8 5 4 2 2 2 2
29 29 28 32 35 28 21 5 5 20 31 5 5 9 16 12 12 12 11 11 11 10 10 7 9 3 6 3 4 2 9 6 7 3 8 9 10 11 10 8 7 6 3 2
29 28 25 29 34 28 27 6 4 6 12 8 9 13 15 17 11 12 14 8 8 11 11 12 4 6 7 6 7 5 4 8 9 6 5 6 12 12 8 6 1 6 6 7
27 22 22 27 35 32 32 8 6 13 7 8 13 14 11 18 13 17 13 9 13 12 10 13 14 6 8 8 3 5 3 5 9 8 2 3 3 5 6 8 9 8 9 8
24 21 20 25 34 37 29 5 5 11 8 27 22 15 13 16 17 11 15 14 14 13 12 10 7 10 11 7 6 5 4 2 7 10 9 6 8 7 8 9 10 11 10 5
25 25 25 25 37 34 20 15 10 10 7 9 17 18 14 18 14 17 14 13 8 10 8 7 5 7 8 4 11 8 7 4 3 9 7 3 7 6 8 7 6 8 6 11
26 27 26 29 41 36 16 15 11 3 5 11 16 20 22 18 11 9 12 13 4 2 13 7 6 8 6 6 8 7 4 5 3 1 5 4 9 8 4 4 11 11 9 10
24 24 20 38 38 33 27 19 4 3 4 9 18 20 15 19 10 6 10 8 7 15 15 8 5 2 3 5 5 6 6 5 3 3 7 6 8 6 3 2 5 8 6 6
30 25 23 34 31 32 32 16 1 2 2 8 18 14 17 6 6 8 14 12 13 14 4 5 5 6 7 7 7 8 7 7 4 5 5 6 6 5 8 5 4 7 7 5
33 29 35 33 30 27 31 13 5 2 4 2 2 5 14 8 13 7 12 9 5 7 3 4 4 4 4 7 9 9 6 7 8 7 6 4 1 4 1 3 4 8 5 8
31 36 36 29 27 24 31 24 8 5 4 12 11 6 5 15 7 8 16 7 5 5 6 5 3 2 2 4 2 9 7 5 6 6 8 5 8 3 3 5 8 10 8 11
37 32 27 27 25 25 26 17 11 4 3 5 10 12 10 9 4 11 20 4 14 8 6 4 1 2 1 6 5 2 2 2 2 5 3 5 9 12 7 6 11 9 10 10
24 22 27 26 21 25 20 13 10 6 8 9 4 5 8 5 9 11 8 4 5 2 1 2 0 2 4 5 3 5 4 6 3 6 6 6 8 10 10 11 12 12 11 12
25 26 25 24 22 22 19 11 11 6 3 3 7 5 8 6 5 5 5 10 7 6 3 1 1 1 4 3 4 3 2 7 9 5 8 10 7 9 12 14 13 14 13 12
22 22 25 25 21 21 11 11 11 3 4 4 10 13 10 9 10 10 9 9 11 9 4 1 2 3 3 2 4 5 4 3 4 1 18 3 16 13 13 14 14 14 15 14
21 17 18 16 19 16 10 6 5 5 5 6 4 7 7 9 9 9 8 5 2 1 2 2 4 3 3 2 2 2 8 7 4 6 14 13 18 15 13 15 15 14 14 13
20 17 18 17 20 18 7 4 11 13 11 5 5 4 4 3 4 5 5 4 1 2 3 2 4 4 3 2 3 9 10 11 15 19 22 15 17 12 14 15 15 15 14 13
14 16 20 24 14 12 3 9 20 12 5 3 2 4 5 5 5 4 1 3 3 4 3 1 1 4 2 2 7 14 13 15 15 16 0 16 15 18 16 15 16 15 14 13
20 22 21 17 8 5 6 16 13 5 2 1 4 6 4 4 3 4 2 2 1 0 1 1 1 3 2 7 15 16 17 12 16 9 16 18 19 18 17 16 15 14 14 12
25 21 6 5 4 16 16 6 2 2 1 2 3 7 4 7 5 1 3 2 2 3 2 4 1 2 4 11 16 17 17 14 16 20 20 18 17 17 16 14 13 13 13 12
8 4 3 11 21 9 2 2 2 3 2 4 6 10 7 9 3 3 2 2 0 2 3 2 3 3 7 10 16 17 15 16 15 14 17 15 15 17 16 15 14 15 14 15
5 8 14 11 3 2 2 2 1 4 3 5 6 12 11 4 3 3 1 1 1 1 2 1 2 4 13 13 15 17 16 15 14 16 17 17 16 16 17 17 17 18 17 16
15 7 4 3 1 2 4 5 3 4 3 3 13 6 4 4 5 3 1 1 1 2 2 2 3 12 15 18 21 19 19 17 15 17 17 19 18 17 17 19 16 15 16 15
3 3 4 1 3 1 3 5 4 3 7 12 14 5 3 3 4 1 1 2 2 2 3 2 5 12 17 20 19 23 19 16 19 22 22 20 18 17 14 13 13 16 17 16
3 4 3 3 3 6 6 7 8 4 14 13 8 4 5 2 2 1 2 2 3 3 3 2 13 17 18 19 21 20 19 19 20 20 19 18 16 15 14 14 16 15 15 14
4 5 3 5 7 5 8 10 6 5 9 9 4 2 2 2 4 3 3 2 2 3 2 7 15 17 17 18 18 19 19 18 19 18 17 16 16 15 17 18 17 16 14 12
3 3 8 8 12 8 8 10 5 4 4 0 2 2 1 1 2 4 1 2 2 5 6 8 13 17 18 18 17 17 17 16 16 17 17 17 17 16 17 19 18 15 13 11
Wind_Direction
251 250 248 241 230 232 219 202 226 193 172 155 227 213 207 222 231 215 235 278 260 254 251 259 243 227 320 49 169 185 213 235 239 234 234 259 242 231 191 247 310 227 357 349
249 254 257 235 221 212 198 218 135 181 182 201 198 242 231 249 234 215 218 230 242 242 239 251 264 234 198 275 263 174 146 234 238 262 254 222 218 224 221 212 218 269 299 301
248 253 255 248 215 210 200 195 150 172 210 241 227 209 236 221 227 235 228 233 237 236 230 234 245 181 190 198 234 51 173 234 224 246 305 316 216 235 236 231 221 306 297 76
248 249 249 243 218 197 192 206 211 188 181 218 240 219 220 224 214 214 220 225 221 221 226 232 228 184 161 190 132 183 192 243 246 249 223 312 312 280 242 254 269 260 292 317
238 243 246 229 208 196 197 201 239 192 225 203 209 229 222 216 216 212 212 213 210 216 225 220 229 167 185 171 174 159 172 245 243 250 245 256 274 266 269 279 283 287 283 287
228 236 225 231 205 200 203 211 259 284 239 202 192 222 230 229 225 211 230 218 203 220 182 256 280 228 164 171 156 194 178 211 212 242 214 271 274 279 278 299 316 322 269 54
229 228 231 214 204 205 199 215 242 251 248 213 214 216 219 232 230 197 175 166 151 169 140 117 97 115 135 126 207 196 211 190 191 239 135 220 91 64 27 3 53 25 32 35
223 227 230 205 201 208 208 220 199 239 257 253 219 210 210 225 187 195 174 95 154 156 147 124 112 136 129 196 206 202 219 199 214 196 221 119 157 71 87 60 81 26 1 6
223 218 206 189 194 204 203 196 198 323 304 242 211 197 197 167 153 181 111 120 152 171 179 173 208 178 191 172 178 208 210 226 231 200 251 230 103 58 105 134 171 39 22 339
205 206 195 187 194 199 204 204 181 278 269 6 138 178 187 148 189 140 134 130 144 197 199 214 220 232 154 152 173 173 183 203 216 224 234 100 220 11 50 233 75 72 34 18
191 188 184 183 190 196 197 205 181 267 304 58 82 105 128 178 145 150 155 147 174 173 204 216 181 229 173 105 320 174 190 195 206 244 223 195 9 227 284 91 98 96 80 81
177 166 172 183 191 186 188 211 211 213 296 81 82 65 53 89 56 207 159 176 172 172 211 223 144 179 110 143 168 140 165 55 71 12 55 91 62 88 100 98 112 108 110 107
155 165 178 181 180 177 178 188 161 135 135 100 86 24 32 58 109 125 181 154 145 159 287 334 147 173 183 181 133 135 143 173 88 187 125 112 103 98 107 114 115 114 114 114
149 152 161 168 173 169 182 159 167 152 149 126 72 64 56 42 125 118 88 127 146 170 200 218 251 139 33 45 134 126 112 149 127 85 116 122 131 132 127 119 117 113 110 109
146 153 163 177 168 150 183 155 179 184 288 115 120 88 72 85 95 105 107 127 145 171 180 199 160 105 88 106 119 111 85 121 189 327 163 63 146 146 140 131 128 122 119 115
149 149 140 148 146 152 143 110 210 175 167 121 123 106 100 97 100 102 107 114 98 94 57 54 71 101 141 156 99 108 100 94 106 98 122 131 142 142 141 133 131 126 121 117
139 153 163 167 157 168 136 174 168 152 127 103 121 130 152 120 118 112 107 99 48 53 124 45 121 153 243 160 149 157 118 110 113 120 118 127 144 147 144 137 131 126 121 118
142 133 139 141 146 118 216 163 157 146 102 141 124 96 146 200 180 123 252 124 141 3 75 168 189 115 272 104 141 129 124 129 140 146 127 152 142 138 140 139 135 130 126 126
131 129 132 143 163 134 146 145 148 115 114 139 153 156 138 177 94 113 114 339 93 75 206 155 201 144 205 141 158 146 153 155 153 144 135 141 143 141 144 144 140 135 133 132
132 136 133 129 148 130 121 121 106 106 21 321 149 106 130 151 155 58 111 315 171 170 163 88 290 82 120 150 157 154 166 158 158 144 148 149 148 149 151 151 146 144 142 141
117 93 78 138 133 113 98 127 170 153 164 162 114 135 131 150 158 152 53 167 127 244 128 226 185 183 140 133 150 160 160 164 162 161 156 156 153 151 150 147 146 147 145 151
138 126 119 121 113 128 123 141 151 236 133 165 152 146 127 122 119 92 221 182 202 289 190 238 234 102 128 142 148 154 163 160 159 156 152 151 150 152 150 150 149 166 171 172
111 108 98 157 97 157 197 163 196 132 142 171 129 109 122 141 67 41 100 81 152 260 197 218 62 134 132 137 134 138 143 152 150 151 150 146 145 156 165 170 177 176 173 169
102 115 103 289 156 142 26 37 77 93 152 137 111 62 69 86 56 292 145 78 237 249 236 105 143 146 143 148 151 148 146 150 156 154 163 166 171 172 175 178 174 167 163 159
60 39 66 68 77 73 83 100 116 90 126 124 132 138 102 98 109 140 82 173 227 238 34 63 134 146 153 148 157 160 162 169 168 170 173 176 175 175 173 166 164 163 163 162
61 45 105 132 113 106 100 101 83 109 145 146 113 159 102 163 142 171 210 269 17 72 68 119 144 158 159 156 166 169 175 178 178 180 181 177 175 172 168 165 162 163 166 165
47 60 22 81 77 69 81 130 129 173 150 94 114 97 84 168 216 170 115 24 70 115 118 145 159 161 163 171 170 167 170 174 176 175 173 170 172 172 165 162 161 164 164 162
Height
1397 1400 1402 1406 1408 1415 1416 1418 1418 1417 1420 1427 1425 1416 1408 1408 1406 1404 1406 1408 1404 1403 1406 1405 1401 1411 1408 1406 1410 1417 1419 1418 1422 1418 1409 1411 1410 1416 1431 1432 1429 1428 1425 1422
1391 1392 1395 1397 1400 1406 1412 1415 1413 1417 1418 1414 1416 1412 1405 1407 1401 1401 1404 1405 1405 1405 1408 1412 1407 1406 1419 1416 1413 1414 1416 1420 1423 1425 1419 1412 1413 1413 1412 1420 1419 1422 1426 1421
1382 1385 1388 1392 1394 1402 1406 1411 1408 1415 1414 1412 1407 1407 1404 1402 1399 1400 1402 1404 1407 1404 1406 1406 1408 1411 1417 1416 1415 1418 1416 1415 1416 1420 1423 1409 1409 1408 1409 1414 1428 1420 1419 1422
1375 1378 1381 1386 1389 1396 1401 1403 1398 1397 1404 1407 1406 1401 1396 1397 1397 1397 1401 1404 1403 1403 1406 1404 1406 1410 1415 1417 1420 1418 1417 1419 1413 1412 1412 1411 1409 1408 1408 1413 1414 1421 1419 1418
1369 1372 1374 1378 1383 1389 1395 1396 1393 1390 1385 1395 1405 1398 1392 1388 1391 1394 1397 1399 1399 1403 1403 1403 1406 1410 1411 1415 1420 1418 1421 1424 1420 1419 1413 1414 1415 1411 1411 1411 1412 1414 1416 1421
1362 1365 1368 1372 1378 1384 1387 1393 1391 1388 1382 1390 1393 1389 1390 1389 1387 1392 1390 1394 1397 1399 1403 1409 1407 1408 1409 1410 1418 1422 1422 1423 1422 1419 1413 1417 1420 1415 1412 1412 1412 1415 1420 1434
1355 1359 1362 1367 1373 1379 1388 1391 1392 1390 1382 1381 1383 1383 1387 1387 1388 1395 1392 1397 1399 1407 1408 1411 1411 1411 1412 1413 1415 1415 1419 1419 1419 1415 1419 1426 1421 1426 1426 1428 1434 1435 1435 1440
1349 1353 1355 1360 1371 1378 1384 1388 1389 1389 1383 1380 1375 1377 1383 1386 1391 1394 1391 1396 1402 1405 1407 1413 1418 1418 1417 1416 1416 1417 1417 1418 1420 1421 1418 1417 1422 1430 1439 1439 1444 1448 1447 1447
1344 1349 1351 1358 1368 1376 1382 1384 1385 1387 1387 1377 1373 1375 1381 1388 1391 1394 1395 1401 1404 1406 1406 1409 1410 1412 1406 1415 1416 1415 1417 1416 1419 1418 1416 1411 1434 1432 1434 1440 1440 1452 1453 1453
1338 1344 1350 1359 1367 1373 1378 1381 1385 1386 1384 1378 1378 1380 1381 1385 1389 1388 1396 1400 1405 1407 1406 1408 1404 1403 1391 1405 1410 1416 1420 1419 1419 1413 1410 1433 1436 1434 1437 1438 1449 1453 1455 1454
1333 1340 1350 1358 1365 1370 1374 1381 1383 1385 1381 1380 1381 1381 1383 1383 1384 1386 1395 1401 1404 1407 1407 1402 1399 1402 1397 1406 1416 1410 1413 1416 1415 1408 1407 1419 1439 1436 1436 1448 1450 1453 1455 1455
1333 1342 1350 1357 1363 1369 1374 1379 1382 1383 1383 1384 1383 1382 1383 1386 1390 1390 1392 1394 1398 1401 1399 1394 1396 1398 1400 1403 1409 1414 1419 1425 1420 1431 1433 1443 1444 1444 1447 1448 1451 1454 1456 1457
1337 1344 1351 1357 1363 1368 1374 1378 1381 1384 1386 1387 1388 1390 1388 1388 1388 1390 1393 1394 1396 1399 1400 1397 1396 1397 1398 1403 1407 1410 1417 1421 1427 1431 1441 1444 1446 1448 1449 1450 1453 1455 1457 1459
1340 1347 1353 1359 1363 1369 1374 1377 1381 1384 1385 1387 1392 1391 1390 1390 1390 1392 1394 1394 1397 1399 1400 1399 1398 1398 1401 1405 1405 1408 1411 1417 1427 1437 1441 1445 1447 1449 1451 1452 1455 1456 1459 1461
1344 1349 1354 1359 1364 1370 1375 1377 1380 1382 1387 1385 1392 1393 1394 1394 1394 1395 1396 1397 1398 1399 1400 1399 1399 1402 1404 1405 1407 1413 1416 1422 1423 1421 1430 1436 1444 1449 1451 1453 1455 1458 1460 1463
1348 1352 1357 1362 1367 1373 1375 1379 1382 1383 1384 1387 1390 1397 1397 1397 1398 1398 1399 1399 1399 1398 1398 1399 1401 1405 1407 1407 1411 1421 1422 1425 1426 1430 1433 1438 1444 1449 1452 1454 1457 1459 1462 1464
1352 1357 1361 1366 1371 1374 1377 1379 1381 1383 1384 1387 1392 1396 1399 1399 1400 1400 1401 1401 1400 1399 1400 1400 1401 1405 1407 1407 1410 1421 1425 1428 1430 1432 1436 1444 1446 1449 1452 1455 1458 1461 1463 1466
1356 1360 1363 1369 1374 1375 1378 1378 1381 1384 1385 1387 1387 1395 1399 1400 1399 1400 1401 1401 1401 1402 1402 1404 1401 1406 1406 1409 1420 1423 1427 1430 1433 1436 1438 1441 1445 1450 1454 1456 1459 1462 1465 1468
1360 1364 1369 1374 1375 1377 1378 1381 1384 1385 1389 1386 1389 1392 1395 1399 1399 1400 1401 1400 1403 1405 1402 1402 1406 1406 1409 1410 1418 1424 1428 1431 1434 1437 1440 1444 1447 1450 1455 1458 1460 1463 1466 1469
1365 1369 1370 1374 1375 1377 1381 1386 1386 1387 1387 1386 1387 1389 1394 1399 1398 1401 1403 1402 1400 1404 1404 1406 1407 1407 1411 1412 1417 1423 1429 1431 1434 1437 1441 1445 1449 1452 1455 1458 1461 1463 1466 1470
1366 1369 1373 1374 1378 1380 1383 1385 1386 1387 1387 1386 1387 1391 1393 1398 1399 1399 1400 1400 1401 1400 1403 1404 1406 1405 1412 1416 1420 1424 1429 1432 1436 1439 1442 1446 1449 1452 1455 1459 1461 1464 1466 1469
1368 1370 1375 1378 1382 1383 1385 1385 1386 1383 1383 1387 1388 1391 1395 1397 1398 1401 1403 1400 1403 1402 1405 1404 1402 1413 1415 1419 1422 1426 1430 1433 1437 1440 1443 1446 1450 1453 1455 1458 1461 1462 1465 1469
1372 1375 1378 1380 1384 1384 1381 1386 1381 1383 1386 1387 1389 1393 1397 1400 1401 1404 1405 1407 1405 1406 1407 1402 1409 1415 1418 1421 1423 1427 1431 1435 1438 1442 1444 1446 1449 1453 1455 1456 1460 1463 1466 1469
1374 1376 1381 1380 1382 1381 1381 1380 1381 1387 1387 1388 1392 1397 1399 1401 1406 1406 1406 1409 1408 1406 1399 1401 1412 1417 1419 1422 1425 1428 1432 1436 1438 1441 1443 1446 1449 1451 1455 1458 1460 1463 1466 1469
1376 1377 1379 1382 1385 1386 1387 1387 1388 1389 1390 1392 1396 1398 1401 1404 1408 1408 1408 1410 1406 1399 1401 1410 1415 1418 1421 1423 1426 1430 1433 1436 1439 1442 1444 1446 1449 1452 1454 1458 1461 1464 1467 1470
1380 1383 1384 1386 1386 1389 1389 1390 1391 1392 1393 1395 1397 1399 1401 1403 1402 1405 1403 1398 1397 1407 1413 1415 1417 1419 1422 1425 1428 1431 1434 1436 1439 1441 1444 1447 1449 1452 1455 1458 1462 1465 1468 1471
1384 1388 1387 1386 1388 1391 1393 1395 1396 1396 1396 1397 1395 1399 1399 1400 1397 1397 1399 1403 1411 1414 1416 1417 1418 1421 1423 1425 1428 1431 1434 1436 1439 1441 1444 1447 1449 1452 1456 1459 1463 1466 1468 1471